Weather History for Gulkana, AK

Change the Weather History Date:

Thursday, June 13, 2013

  Actual Average Record
Temperature  
Mean Temperature 56 °F -  
Max Temperature 72 °F 67 °F 85 °F (1969)
Min Temperature 39 °F 41 °F 30 °F (1965)
Degree Days  
Heating Degree Days 10    
Growing Degree Days 6 (Base 50)    
Moisture  
Dew Point 34 °F    
Average Humidity 43    
Maximum Humidity 86    
Minimum Humidity 13    
Precipitation  
Precipitation 0.00 in - - ()
Sea Level Pressure  
Sea Level Pressure 30.03 in    
Wind  
Wind Speed 5 mph (North)    
Max Wind Speed 17 mph    
Max Gust Speed 25 mph    
Visibility 10 miles    
Events      
Averages and records for this station are not official NWS values.
T = Trace of Precipitation, MM = Missing Value Source: NWS Daily Summary

Daily Weather History Graph

Daily Weather History Graph

Search for Another Location

Airport:

Trip Planner

Search our weather history database for the weather conditions in past years. The results will help you decide how hot, cold, wet, or windy it might be!

Date:

Astronomy

Jun. 13, 2013 Rise Set
Actual Time 3:50 AM AKDT 11:34 PM AKDT
Civil Twilight 2:14 AM AKDT 1:09 AM AKDT
Nautical Twilight Sun does not rise Sun does not rise
Astronomical Twilight Sun does not rise Sun does not rise
Moon 10:11 AM AKDT (6/13) 12:45 AM AKDT (6/13)
Length of Visible Light 22h 55m
Length of Day
19h 43m
Waxing Crescent, 23% of the Moon is Illuminated
Jun 13
Waxing Crescent
Jun 16
First Quarter
Jun 23
Full
Jun 29
Last Quarter
Jul 7
New

Hourly Weather History & Observations

Time (AKDT) Temp. Windchill Dew Point Humidity Pressure Visibility Wind Dir Wind Speed Gust Speed Precip Events Conditions
12:53 AM 42.1 °F - 37.0 °F 82% 30.04 in 10.0 mi Calm Calm - N/A   Clear
1:53 AM 42.1 °F - 36.0 °F 79% 30.04 in 10.0 mi Calm Calm - N/A   Clear
2:53 AM 39.9 °F 37.8 °F 36.0 °F 86% 30.04 in 10.0 mi North 3.5 mph - N/A   Clear
3:53 AM 42.1 °F - 37.0 °F 82% 30.04 in 10.0 mi Calm Calm - N/A   Scattered Clouds
4:53 AM 39.9 °F 36.7 °F 35.1 °F 83% 30.05 in 10.0 mi North 4.6 mph - N/A   Clear
5:53 AM 44.1 °F 41.5 °F 35.1 °F 71% 30.05 in 10.0 mi North 4.6 mph - N/A   Scattered Clouds
6:53 AM 48.0 °F - 34.0 °F 58% 30.05 in 10.0 mi North 4.6 mph - N/A   Scattered Clouds
7:53 AM 51.1 °F - 33.1 °F 50% 30.05 in 10.0 mi North 4.6 mph - N/A   Scattered Clouds
8:53 AM 55.9 °F - 34.0 °F 44% 30.04 in 10.0 mi North 8.1 mph - N/A   Scattered Clouds
9:53 AM 61.0 °F - 34.0 °F 36% 30.02 in 10.0 mi NNE 5.8 mph - N/A   Scattered Clouds
10:53 AM 63.0 °F - 30.9 °F 30% 30.03 in 10.0 mi North 8.1 mph 17.3 mph N/A   Scattered Clouds
11:53 AM 66.9 °F - 28.0 °F 23% 30.03 in 10.0 mi North 9.2 mph - N/A   Scattered Clouds
12:53 PM 64.0 °F - 28.9 °F 27% 30.03 in 10.0 mi NNE 10.4 mph - N/A   Mostly Cloudy
1:53 PM 68.0 °F - 32.0 °F 26% 30.03 in 10.0 mi NNE 13.8 mph 25.3 mph N/A   Mostly Cloudy
2:53 PM 69.1 °F - 30.9 °F 24% 30.02 in 10.0 mi North 17.3 mph 24.2 mph N/A   Mostly Cloudy
3:53 PM 69.1 °F - 30.0 °F 23% 30.01 in 10.0 mi North 11.5 mph 20.7 mph N/A   Mostly Cloudy
4:53 PM 66.9 °F - 30.9 °F 26% 30.03 in 10.0 mi NNE 15.0 mph 20.7 mph N/A   Mostly Cloudy
5:53 PM 66.0 °F - 33.1 °F 29% 30.02 in 10.0 mi North 10.4 mph - N/A   Mostly Cloudy
6:53 PM 68.0 °F - 32.0 °F 26% 30.02 in 10.0 mi North 10.4 mph - N/A   Mostly Cloudy
7:53 PM 69.1 °F - 33.1 °F 26% 30.02 in 10.0 mi NNE 10.4 mph - N/A   Mostly Cloudy
8:53 PM 66.9 °F - 34.0 °F 30% 30.03 in 10.0 mi NNE 8.1 mph - N/A   Overcast
9:27 PM 66.9 °F - 35.1 °F 31% 30.04 in 10.0 mi NNE 6.9 mph - N/A   Overcast
9:53 PM 66.0 °F - 35.1 °F 32% 30.03 in 10.0 mi NE 8.1 mph - N/A   Clear
10:53 PM 63.0 °F - 34.0 °F 34% 30.04 in 10.0 mi NE 5.8 mph - N/A   Mostly Cloudy
11:53 PM 59.0 °F - 37.0 °F 44% 30.05 in 10.0 mi North 4.6 mph - N/A   Overcast